GEOSCAN 3 (RS92S3)

Last updated on Mon Sep 15 2025 00:03:10 GMT+0000 (Coordinated Universal Time)

1 64893U 25155T 25257.16493767 .00010867 00000+0 45564-3 0 9990 2 64893 97.4199 221.7766 0010207 86.9333 273.3072 15.23632290 38653
UTC large
Height (km)
Speed (km/s)
/
Latitude / Longitude
Inclination (degrees)
Orbital Period (minutes)
Azimuth
Elevation
Range (km)
Doppler Factor

Next 0 passes for location: London (51.5072 / 0.1276)

Sorry there are no passes over London.